TimeEDT,TemperatureF,Dew PointF,Humidity,Sea Level PressureIn,VisibilityMPH,Wind Direction,Wind SpeedMPH,Gust SpeedMPH,PrecipitationIn,Events,Conditions,WindDirDegrees,DateUTC
12:54 AM,43.0,37.9,82,30.02,10.0,Calm,Calm,-,N/A,,Overcast,0,2012-10-08 04:54:00
1:42 AM,42.8,35.6,76,30.00,7.0,SW,4.6,-,0.02,Rain,Light Rain,230,2012-10-08 05:42:00
1:54 AM,42.1,36.0,79,30.04,8.0,Variable,5.8,-,0.03,Rain,Light Rain,0,2012-10-08 05:54:00
2:54 AM,39.9,37.0,89,30.04,10.0,Calm,Calm,-,0.06,Rain,Light Rain,0,2012-10-08 06:54:00
3:12 AM,39.2,37.4,93,30.02,9.0,West,3.5,-,0.01,Rain,Light Rain,270,2012-10-08 07:12:00
3:54 AM,39.0,37.0,93,30.06,10.0,WSW,4.6,-,0.03,Rain,Light Rain,250,2012-10-08 07:54:00
4:54 AM,39.0,37.0,93,30.06,10.0,WSW,3.5,-,0.02,Rain,Light Rain,250,2012-10-08 08:54:00
5:37 AM,39.2,35.6,87,30.04,8.0,WSW,3.5,-,0.02,Rain,Light Rain,240,2012-10-08 09:37:00
5:44 AM,39.2,35.6,87,30.04,10.0,Calm,Calm,-,0.02,Rain,Light Rain,0,2012-10-08 09:44:00
5:54 AM,37.9,37.0,97,30.07,10.0,WSW,3.5,-,0.02,Rain,Light Rain,240,2012-10-08 09:54:00
6:54 AM,37.9,36.0,93,30.06,10.0,Calm,Calm,-,0.00,,Overcast,0,2012-10-08 10:54:00
7:54 AM,39.0,37.0,93,30.08,10.0,WSW,3.5,-,N/A,,Overcast,250,2012-10-08 11:54:00
8:25 AM,39.2,37.4,93,30.07,10.0,WSW,6.9,-,N/A,,Overcast,250,2012-10-08 12:25:00
8:54 AM,41.0,37.0,86,30.10,10.0,WSW,8.1,-,N/A,,Overcast,250,2012-10-08 12:54:00
9:14 AM,41.0,37.4,87,30.08,10.0,West,8.1,-,N/A,,Overcast,260,2012-10-08 13:14:00
9:54 AM,44.1,37.0,76,30.11,10.0,West,9.2,-,N/A,,Mostly Cloudy,260,2012-10-08 13:54:00
10:54 AM,42.1,36.0,79,30.12,10.0,West,9.2,-,N/A,,Overcast,260,2012-10-08 14:54:00
11:54 AM,43.0,37.9,82,30.13,7.0,West,6.9,-,0.01,Rain,Light Rain,270,2012-10-08 15:54:00
12:22 PM,44.6,37.4,76,30.10,10.0,Variable,5.8,-,0.00,,Overcast,0,2012-10-08 16:22:00
12:54 PM,45.0,36.0,71,30.14,10.0,West,10.4,-,0.00,,Mostly Cloudy,260,2012-10-08 16:54:00
1:39 PM,42.8,35.6,76,30.12,4.0,NW,9.2,-,0.00,Rain,Rain,310,2012-10-08 17:39:00
1:54 PM,42.1,37.0,82,30.16,5.0,WNW,9.2,-,0.02,Rain,Light Rain,300,2012-10-08 17:54:00
2:22 PM,42.8,37.4,81,30.15,10.0,NW,8.1,-,0.02,Rain,Light Rain,310,2012-10-08 18:22:00
2:54 PM,45.0,37.0,74,30.17,10.0,NW,6.9,-,0.02,,Scattered Clouds,320,2012-10-08 18:54:00
3:54 PM,45.0,35.1,68,30.20,10.0,NW,11.5,-,0.00,,Partly Cloudy,310,2012-10-08 19:54:00
4:54 PM,44.1,30.9,60,30.23,10.0,WNW,4.6,-,N/A,,Clear,290,2012-10-08 20:54:00
5:54 PM,42.1,32.0,67,30.25,10.0,WNW,3.5,-,N/A,,Clear,300,2012-10-08 21:54:00
6:54 PM,39.9,32.0,73,30.28,10.0,West,3.5,-,N/A,,Clear,270,2012-10-08 22:54:00
7:54 PM,37.9,30.9,76,30.31,10.0,West,3.5,-,N/A,,Clear,260,2012-10-08 23:54:00
8:54 PM,35.1,30.0,82,30.32,10.0,Calm,Calm,-,N/A,,Clear,0,2012-10-09 00:54:00
9:54 PM,35.1,30.9,85,30.34,10.0,Calm,Calm,-,N/A,,Clear,0,2012-10-09 01:54:00
10:54 PM,33.1,30.0,89,30.35,10.0,Calm,Calm,-,N/A,,Clear,0,2012-10-09 02:54:00
11:54 PM,33.1,30.0,89,30.36,10.0,Calm,Calm,-,N/A,,Clear,0,2012-10-09 03:54:00